• In Czech Republic
  • List of Countries
  • For 7 days
  • Water Temperature
  • Satellite Maps
  • Weather Map
  • Weather Widgets
  • user-avatar
    Login

    Hourly Weather Klagenfurt

    Today, 17 August, Thursday

    Time Temperature Precipitation Wind Pressure Humidity
    00:00 +15°C° 0 mm 1 mps 694 mmHg 90%
    01:00 +15°C° 0 mm 1 mps 693 mmHg 89%
    02:00 +15°C° 0 mm 1 mps 693 mmHg 89%
    03:00 +14°C° 0 mm 1 mps 693 mmHg 90%
    04:00 +14°C° 0 mm 1 mps 693 mmHg 91%
    05:00 +15°C° 0 mm 1 mps 693 mmHg 88%
    06:00 +16°C° 0 mm 1 mps 694 mmHg 84%
    07:00 +19°C° 0 mm 1 mps 694 mmHg 79%
    08:00 +22°C° 0 mm 1 mps 694 mmHg 70%
    09:00 +24°C° 0 mm 1 mps 695 mmHg 61%
    10:00 +26°C° 0 mm 1 mps 695 mmHg 52%
    11:00 +27°C° 0 mm 1 mps 695 mmHg 48%
    12:00 +28°C° 0 mm 1 mps 695 mmHg 45%
    13:00 +29°C° 0 mm 1 mps 695 mmHg 41%
    14:00 +29°C° 0 mm 1 mps 695 mmHg 43%
    15:00 +28°C° 0 mm 1 mps 695 mmHg 45%
    16:00 +28°C° 0 mm 1 mps 694 mmHg 46%
    17:00 +25°C° 0.1 mm 1 mps 694 mmHg 55%
    18:00 +21°C° 0.1 mm 0 mps 693 mmHg 63%
    19:00 +19°C° 0.1 mm 0 mps 693 mmHg 71%
    20:00 +18°C° 0 mm 0 mps 693 mmHg 73%
    21:00 +17°C° 0 mm 0 mps 693 mmHg 75%
    22:00 +16°C° 0 mm 0 mps 693 mmHg 78%
    23:00 +18°C° 0 mm 1 mps 693 mmHg 79%

    Tomorrow, 18 August, Friday

    Time Temperature Precipitation Wind Pressure Humidity
    00:00 +18°C° 0 mm 1 mps 693 mmHg 79%
    01:00 +16°C° 0 mm 1 mps 693 mmHg 80%
    02:00 +16°C° 0 mm 1 mps 693 mmHg 81%
    03:00 +16°C° 0 mm 1 mps 693 mmHg 82%
    04:00 +15°C° 0 mm 1 mps 692 mmHg 83%
    05:00 +18°C° 0 mm 1 mps 693 mmHg 79%
    06:00 +19°C° 0 mm 1 mps 693 mmHg 76%
    07:00 +18°C° 0 mm 0 mps 693 mmHg 73%
    08:00 +23°C° 0 mm 1 mps 693 mmHg 64%
    09:00 +25°C° 0 mm 1 mps 694 mmHg 54%
    10:00 +28°C° 0 mm 1 mps 694 mmHg 45%
    11:00 +29°C° 0 mm 1 mps 694 mmHg 42%
    12:00 +30°C° 0 mm 1 mps 694 mmHg 39%
    13:00 +30°C° 0 mm 2 mps 694 mmHg 36%
    14:00 +30°C° 0 mm 2 mps 693 mmHg 37%
    15:00 +30°C° 0 mm 2 mps 693 mmHg 38%
    16:00 +29°C° 0 mm 2 mps 692 mmHg 39%
    17:00 +27°C° 0 mm 1 mps 692 mmHg 49%
    18:00 +24°C° 0 mm 1 mps 691 mmHg 58%
    19:00 +22°C° 0 mm 1 mps 690 mmHg 68%
    20:00 +21°C° 0 mm 1 mps 690 mmHg 71%
    21:00 +20°C° 0 mm 1 mps 690 mmHg 74%
    22:00 +18°C° 0 mm 1 mps 690 mmHg 77%
    23:00 +18°C° 0 mm 1 mps 690 mmHg 78%

    Day after tomorrow, 19 August, Saturday

    Time Temperature Precipitation Wind Pressure Humidity
    00:00 +16°C° 0 mm 1 mps 690 mmHg 78%
    01:00 +16°C° 0 mm 1 mps 689 mmHg 79%
    02:00 +16°C° 0 mm 1 mps 689 mmHg 80%
    03:00 +15°C° 0 mm 1 mps 689 mmHg 80%
    04:00 +15°C° 0 mm 1 mps 689 mmHg 80%
    05:00 +16°C° 0.2 mm 1 mps 690 mmHg 78%
    06:00 +18°C° 0.2 mm 1 mps 690 mmHg 76%
    07:00 +19°C° 0.2 mm 1 mps 691 mmHg 74%
    08:00 +20°C° 0.5 mm 1 mps 691 mmHg 73%
    09:00 +20°C° 0.5 mm 2 mps 692 mmHg 71%
    10:00 +20°C° 0.5 mm 2 mps 692 mmHg 69%
    11:00 +19°C° 1.2 mm 2 mps 692 mmHg 75%
    12:00 +18°C° 1.2 mm 2 mps 692 mmHg 80%
    13:00 +17°C° 1.2 mm 2 mps 692 mmHg 86%
    14:00 +16°C° 1.4 mm 2 mps 691 mmHg 88%
    15:00 +15°C° 1.4 mm 2 mps 691 mmHg 90%
    16:00 +14°C° 1.4 mm 2 mps 691 mmHg 93%
    17:00 +14°C° 1 mm 2 mps 691 mmHg 93%
    18:00 +14°C° 1 mm 1 mps 691 mmHg 93%
    19:00 +13°C° 1 mm 1 mps 692 mmHg 93%
    20:00 +13°C° 0.5 mm 1 mps 692 mmHg 93%
    21:00 +13°C° 0.5 mm 1 mps 692 mmHg 92%
    22:00 +13°C° 0.5 mm 1 mps 692 mmHg 92%
    23:00 +13°C° 0.4 mm 1 mps 692 mmHg 92%

    20 August, Sunday

    Time Temperature Precipitation Wind Pressure Humidity
    00:00 +13°C° 0.4 mm 1 mps 692 mmHg 91%
    01:00 +12°C° 0.4 mm 1 mps 692 mmHg 91%
    02:00 +12°C° 0.2 mm 1 mps 692 mmHg 92%
    03:00 +12°C° 0.2 mm 1 mps 692 mmHg 92%
    04:00 +11°C° 0.2 mm 1 mps 692 mmHg 93%
    05:00 +12°C° 0 mm 1 mps 692 mmHg 91%
    06:00 +13°C° 0 mm 1 mps 693 mmHg 89%
    07:00 +13°C° 0 mm 1 mps 693 mmHg 87%
    08:00 +15°C° 0 mm 1 mps 693 mmHg 76%
    09:00 +17°C° 0 mm 2 mps 694 mmHg 65%
    10:00 +19°C° 0 mm 2 mps 694 mmHg 54%
    11:00 +20°C° 0.1 mm 2 mps 694 mmHg 52%
    12:00 +21°C° 0.1 mm 2 mps 694 mmHg 50%
    13:00 +21°C° 0.1 mm 2 mps 694 mmHg 48%
    14:00 +21°C° 0.1 mm 2 mps 694 mmHg 48%
    15:00 +21°C° 0.1 mm 2 mps 694 mmHg 48%
    16:00 +21°C° 0.1 mm 2 mps 694 mmHg 48%
    17:00 +19°C° 0 mm 2 mps 694 mmHg 55%
    18:00 +18°C° 0 mm 1 mps 694 mmHg 62%
    19:00 +15°C° 0 mm 1 mps 693 mmHg 69%
    20:00 +14°C° 0 mm 1 mps 694 mmHg 72%
    21:00 +13°C° 0 mm 1 mps 694 mmHg 75%
    22:00 +11°C° 0 mm 1 mps 694 mmHg 77%
    23:00 +11°C° 0 mm 1 mps 694 mmHg 79%

    21 August, Monday

    Time Temperature Precipitation Wind Pressure Humidity
    00:00 +10°C° 0 mm 1 mps 694 mmHg 80%
    01:00 +10°C° 0 mm 1 mps 694 mmHg 81%
    02:00 +10°C° 0 mm 1 mps 694 mmHg 81%
    03:00 +9°C° 0 mm 1 mps 694 mmHg 82%
    04:00 +9°C° 0 mm 1 mps 694 mmHg 82%
    05:00 +10°C° 0 mm 1 mps 694 mmHg 79%
    06:00 +11°C° 0 mm 1 mps 694 mmHg 75%
    07:00 +12°C° 0 mm 1 mps 695 mmHg 71%
    08:00 +15°C° 0 mm 1 mps 695 mmHg 61%
    09:00 +19°C° 0 mm 1 mps 696 mmHg 52%
    10:00 +21°C° 0 mm 1 mps 696 mmHg 42%
    11:00 +22°C° 0 mm 1 mps 696 mmHg 39%
    12:00 +24°C° 0 mm 1 mps 696 mmHg 35%
    13:00 +25°C° 0 mm 1 mps 695 mmHg 32%
    14:00 +24°C° 0 mm 1 mps 695 mmHg 33%
    15:00 +24°C° 0 mm 1 mps 695 mmHg 34%
    16:00 +24°C° 0 mm 1 mps 694 mmHg 35%
    17:00 +21°C° 0 mm 1 mps 694 mmHg 45%
    18:00 +19°C° 0 mm 1 mps 694 mmHg 55%
    19:00 +15°C° 0 mm 1 mps 693 mmHg 65%
    20:00 +14°C° 0 mm 1 mps 693 mmHg 68%
    21:00 +13°C° 0 mm 1 mps 694 mmHg 70%
    22:00 +12°C° 0 mm 0 mps 694 mmHg 73%
    23:00 +12°C° 0 mm 0 mps 694 mmHg 73%

    22 August, Tuesday

    Time Temperature Precipitation Wind Pressure Humidity
    00:00 +11°C° 0 mm 0 mps 693 mmHg 73%
    01:00 +11°C° 0 mm 0 mps 693 mmHg 73%
    02:00 +11°C° 0 mm 0 mps 693 mmHg 74%
    03:00 +10°C° 0 mm 0 mps 693 mmHg 76%
    04:00 +10°C° 0 mm 0 mps 692 mmHg 78%
    05:00 +11°C° 0 mm 0 mps 693 mmHg 75%
    06:00 +13°C° 0 mm 0 mps 693 mmHg 72%
    07:00 +14°C° 0 mm 0 mps 693 mmHg 69%
    08:00 +18°C° 0 mm 1 mps 693 mmHg 62%
    09:00 +21°C° 0 mm 1 mps 693 mmHg 55%
    10:00 +24°C° 0 mm 1 mps 693 mmHg 48%
    11:00 +25°C° 0 mm 1 mps 693 mmHg 46%
    12:00 +26°C° 0 mm 2 mps 693 mmHg 44%
    13:00 +27°C° 0 mm 2 mps 693 mmHg 43%
    14:00 +26°C° 0 mm 2 mps 692 mmHg 44%
    15:00 +26°C° 0 mm 2 mps 692 mmHg 46%
    16:00 +26°C° 0 mm 2 mps 691 mmHg 48%
    17:00 +23°C° 0 mm 2 mps 691 mmHg 58%
    18:00 +21°C° 0 mm 1 mps 690 mmHg 68%
    19:00 +18°C° 0 mm 1 mps 690 mmHg 78%
    20:00 +16°C° 0.1 mm 1 mps 690 mmHg 80%
    21:00 +15°C° 0.1 mm 1 mps 690 mmHg 83%
    22:00 +14°C° 0.1 mm 1 mps 690 mmHg 86%
    23:00 +14°C° 0 mm 1 mps 689 mmHg 86%
    Show more